Location: Fours
(44.3167°N, 6.7000°E)
Time: 11:48:19
(UTC+00:00)

IRS-1C Rocket - Pass Details

Date: 16 October 2021
Orbit: 801 x 805 km, 98.9° (Epoch: 02 December)

Event Time Altitude Azimuth Distance (km) Brightness Sun altitude
Exits shadow 18:49:18 - 172° (S) 2,855 6.8 -22.6°
Reaches altitude 10° 18:50:31 10° 174° (S) 2,370 6.4 -22.8°
Maximum altitude 18:55:44 68° 257° (WSW) 866 4.4 -23.7°
Drops below altitude 10° 19:01:00 10° 341° (NNW) 2,390 6.9 -24.6°
Sets 19:03:22 0° 344° (NNW) 3,326 7.7 -25.0°
